QPF
0.03 0.04 0.04 0.06 0.06 0.05 0.06 0.07 0.08 0.09 0.09 0.11 0.11 0.09 0.09 0.09 0.10 0.11 0.10 0.12 0.13 0.13 0.11 0.10 0.10 0.10 0.10 0.09 0.10 0.11 0.12 0.13 0.12 0.09 0.10 0.08 0.08 0.08 0.09 0.07 0.04 0.05 0.06
0.04 0.03 0.04 0.05 0.05 0.04 0.04 0.06 0.06 0.07 0.06 0.07 0.09 0.08 0.06 0.06 0.09 0.11 0.10 0.11 0.13 0.14 0.12 0.10 0.08 0.08 0.10 0.09 0.11 0.12 0.11 0.13 0.14 0.12 0.11 0.11 0.12 0.10 0.10 0.10 0.08 0.07 0.08
0.03 0.03 0.04 0.04 0.05 0.05 0.05 0.05 0.05 0.05 0.07 0.09 0.11 0.08 0.07 0.07 0.09 0.11 0.12 0.12 0.13 0.15 0.14 0.12 0.09 0.09 0.09 0.09 0.09 0.11 0.10 0.09 0.12 0.13 0.13 0.12 0.11 0.12 0.13 0.13 0.10 0.11 0.12
0.01 0.02 0.04 0.04 0.03 0.04 0.04 0.04 0.04 0.05 0.06 0.09 0.09 0.09 0.09 0.09 0.10 0.10 0.11 0.12 0.13 0.14 0.13 0.12 0.10 0.09 0.08 0.09 0.09 0.09 0.09 0.11 0.15 0.16 0.15 0.14 0.15 0.14 0.15 0.17 0.16 0.14 0.14
0.02 0.03 0.04 0.03 0.03 0.02 0.03 0.05 0.05 0.05 0.05 0.07 0.09 0.10 0.09 0.07 0.07 0.09 0.12 0.15 0.18 0.19 0.17 0.14 0.12 0.09 0.07 0.06 0.05 0.07 0.10 0.12 0.14 0.14 0.14 0.13 0.13 0.14 0.13 0.12 0.12 0.12 0.11
0.02 0.03 0.05 0.05 0.04 0.03 0.03 0.04 0.04 0.04 0.05 0.06 0.06 0.06 0.06 0.05 0.07 0.06 0.08 0.13 0.15 0.15 0.15 0.13 0.11 0.09 0.08 0.08 0.09 0.10 0.11 0.12 0.13 0.12 0.11 0.11 0.10 0.10 0.10 0.09 0.10 0.10 0.10
0.01 0.02 0.04 0.06 0.05 0.03 0.03 0.04 0.04 0.04 0.05 0.06 0.06 0.06 0.05 0.06 0.07 0.05 0.05 0.05 0.06 0.07 0.07 0.08 0.09 0.09 0.12 0.12 0.13 0.13 0.11 0.09 0.08 0.07 0.07 0.08 0.07 0.06 0.08 0.08 0.10 0.11 0.12
0.03 0.04 0.05 0.04 0.03 0.04 0.04 0.04 0.05 0.06 0.07 0.07 0.06 0.06 0.06 0.07 0.07 0.04 0.04 0.06 0.07 0.06 0.06 0.06 0.06 0.09 0.10 0.11 0.08 0.06 0.05 0.04 0.04 0.04 0.04 0.04 0.04 0.04 0.04 0.05 0.07 0.08 0.09
0.03 0.05 0.07 0.06 0.05 0.04 0.04 0.05 0.05 0.05 0.07 0.08 0.08 0.07 0.07 0.06 0.05 0.03 0.02 0.03 0.03 0.03 0.03 0.04 0.05 0.04 0.06 0.07 0.06 0.05 0.04 0.03 0.03 0.03 0.02 0.02 0.02 0.02 0.02 0.04 0.05 0.08 0.09
0.03 0.04 0.06 0.06 0.06 0.06 0.06 0.05 0.05 0.04 0.05 0.06 0.06 0.05 0.04 0.04 0.04 0.02 0.02 0.01 0.02 0.02 0.02 0.02 0.02 0.03 0.04 0.05 0.04 0.04 0.03 0.03 0.03 0.03 0.02 0.02 0.02 0.02 0.02 0.02 0.04 0.06 0.07
0.03 0.03 0.04 0.04 0.05 0.05 0.04 0.04 0.04 0.03 0.03 0.04 0.04 0.04 0.03 0.03 0.04 0.03 0.02 0.02 0.02 0.02 0.02 0.02 0.03 0.02 0.03 0.04 0.03 0.03 0.04 0.03 0.03 0.03 0.02 0.02 0.02 0.02 0.02 0.03 0.03 0.05 0.05
0.03 0.02 0.03 0.04 0.04 0.04 0.03 0.02 0.02 0.02 0.03 0.03 0.03 0.03 0.03 0.03 0.03 0.02 0.02 0.02 0.02 0.02 0.02 0.03 0.03 0.04 0.04 0.04 0.03 0.04 0.04 0.04 0.03 0.03 0.03 0.03 0.03 0.03 0.03 0.03 0.02 0.02 0.02
0.01 0.01 0.02 0.03 0.03 0.04 0.04 0.04 0.03 0.03 0.03 0.03 0.03 0.03 0.03 0.03 0.03 0.02 0.02 0.02 0.02 0.01 0.01 0.02 0.03 0.03 0.04 0.03 0.03 0.04 0.04 0.03 0.03 0.04 0.05 0.04 0.04 0.03 0.03 0.02 0.02 0.02 0.02
0.01 0.02 0.03 0.04 0.04 0.04 0.04 0.04 0.04 0.05 0.04 0.03 0.03 0.03 0.03 0.03 0.02 0.02 0.02 0.01 0.01 0.01 0.02 0.02 0.02 0.03 0.03 0.03 0.03 0.03 0.03 0.03 0.04 0.04 0.05 0.05 0.04 0.03 0.02 0.02 0.01 0.01 0.01
0.02 0.03 0.04 0.03 0.02 0.03 0.05 0.05 0.05 0.06 0.05 0.04 0.03 0.03 0.03 0.03 0.02 0.02 0.02 0.01 0.01 0.01 0.01 0.01 0.02 0.03 0.03 0.03 0.04 0.04 0.04 0.04 0.04 0.04 0.04 0.04 0.03 0.02 0.02 0.01 0.01 0.01 0.01
0.02 0.04 0.03 0.02 0.01 0.01 0.02 0.03 0.03 0.03 0.04 0.04 0.03 0.03 0.02 0.03 0.03 0.02 0.02 0.01 0.01 0.01 0.01 0.02 0.02 0.03 0.04 0.04 0.05 0.05 0.05 0.05 0.05 0.04 0.03 0.03 0.02 0.02 0.01 0.01 0.01 0.01 0.01
0.02 0.02 0.01 0.02 0.01 0.01 0.01 0.01 0.01 0.01 0.02 0.03 0.02 0.02 0.01 0.01 0.01 0.01 0.01 0.01 0.01 0.01 0.01 0.01 0.01 0.01 0.02 0.02 0.02 0.02 0.02 0.02 0.02 0.02 0.02 0.01 0.01 0.01 0.01 0.01 0.01 0.01 0.02
0.02 0.01 0.01 0.02 0.01 0.01 0.01 0.01 0.01 0.01 0.01 0.01 0.01 0.01 0.01 0.00 0.00 0.00 0.00 0.00 0.00 0.01 0.01 0.01 0.01 0.01 0.01 0.01 0.02 0.02 0.02 0.02 0.02 0.02 0.02 0.02 0.02 0.02 0.02 0.02 0.02 0.02 0.02
0.01 0.01 0.01 0.01 0.01 0.00 0.01 0.01 0.01 0.01 0.01 0.01 0.01 0.00 0.01 0.00 0.00 0.00 0.00 0.00 0.00 0.01 0.01 0.01 0.01 0.02 0.02 0.02 0.03 0.03 0.03 0.03 0.02 0.02 0.03 0.03 0.03 0.04 0.04 0.03 0.02 0.01 0.01
0.01 0.01 0.01 0.01 0.00 0.00 0.00 0.01 0.01 0.01 0.01 0.01 0.01 0.01 0.01 0.01 0.00 0.00 0.00 0.00 0.00 0.00 0.00 0.00 0.00 0.01 0.01 0.01 0.02 0.02 0.02 0.02 0.02 0.02 0.03 0.03 0.03 0.03 0.02 0.02 0.01 0.00 0.00
0.03 0.03 0.03 0.02 0.02 0.01 0.01 0.01 0.01 0.01 0.01 0.01 0.01 0.01 0.01 0.00 0.00 0.00 0.00 0.00 0.00 0.00 0.00 0.00 0.00 0.01 0.01 0.01 0.01 0.01 0.01 0.02 0.02 0.02 0.02 0.02 0.02 0.01 0.01 0.01 0.00 0.00 0.00
0.02 0.02 0.03 0.03 0.02 0.01 0.01 0.00 0.00 0.01 0.01 0.00 0.00 0.00 0.00 0.00 0.00 0.00 0.00 0.00 0.00 0.00 0.00 0.00 0.01 0.01 0.00 0.01 0.01 0.01 0.01 0.01 0.01 0.01 0.01 0.00 0.00 0.00 0.00 0.00 0.00 0.00 0.00
0.01 0.01 0.01 0.01 0.01 0.01 0.00 0.00 0.00 0.01 0.01 0.01 0.01 0.00 0.00 0.00 0.00 0.00 0.00 0.00 0.00 0.01 0.01 0.01 0.01 0.01 0.00 0.00 0.00 0.00 0.00 0.01 0.00 0.00 0.00 0.00 0.00 0.00 0.00 0.00 0.00 0.00 0.00
0.01 0.01 0.01 0.01 0.01 0.00 0.00 0.00 0.01 0.01 0.01 0.01 0.01 0.01 0.01 0.00 0.00 0.00 0.00 0.00 0.00 0.00 0.00 0.00 0.00 0.00 0.00 0.00 0.00 0.00 0.00 0.00 0.00 0.00 0.00 0.00 0.00 0.00 0.00 0.00 0.00 0.00 0.00
0.00 0.01 0.01 0.01 0.01 0.00 0.00 0.00 0.00 0.01 0.01 0.01 0.01 0.00 0.00 0.00 0.00 0.00 0.00 0.00 0.00 0.00 0.00 0.00 0.00 0.00 0.00 0.00 0.00 0.00 0.00 0.00 0.00 0.00 0.00 0.00 0.00 0.00 0.00 0.00 0.00 0.00 0.00
0.01 0.00 0.00 0.00 0.01 0.01 0.01 0.01 0.00 0.00 0.00 0.00 0.00 0.00 0.00 0.00 0.00 0.00 0.00 0.00 0.00 0.00 0.00 0.00 0.00 0.00 0.00 0.00 0.00 0.00 0.00 0.00 0.00 0.00 0.00 0.00 0.00 0.00 0.00 0.00 0.00 0.00 0.00
MSLP
1014.23 1014.46 1014.67 1014.86 1015.01 1015.15 1015.27 1015.40 1015.56 1015.75 1015.99 1016.27 1016.58 1016.90 1017.22 1017.52 1017.80 1018.06 1018.30 1018.54 1018.80 1019.07 1019.37 1019.67 1019.96 1020.24 1020.47 1020.66 1020.79 1020.88 1020.94 1021.01 1021.10 1021.23 1021.42 1021.67 1021.98 1022.32 1022.68 1023.03 1023.34 1023.61 1023.80
1014.22 1014.45 1014.65 1014.83 1014.98 1015.12 1015.25 1015.39 1015.55 1015.75 1015.99 1016.28 1016.60 1016.94 1017.30 1017.66 1018.01 1018.34 1018.67 1018.99 1019.31 1019.62 1019.92 1020.20 1020.45 1020.66 1020.83 1020.96 1021.05 1021.13 1021.22 1021.32 1021.48 1021.69 1021.96 1022.28 1022.64 1023.02 1023.39 1023.73 1024.03 1024.27 1024.44
1014.21 1014.44 1014.64 1014.82 1014.99 1015.14 1015.30 1015.47 1015.66 1015.89 1016.15 1016.46 1016.80 1017.16 1017.55 1017.95 1018.36 1018.76 1019.16 1019.54 1019.91 1020.24 1020.54 1020.80 1021.00 1021.15 1021.26 1021.32 1021.37 1021.43 1021.51 1021.65 1021.84 1022.10 1022.42 1022.79 1023.18 1023.57 1023.94 1024.26 1024.52 1024.72 1024.85
1014.24 1014.48 1014.69 1014.89 1015.07 1015.26 1015.47 1015.69 1015.93 1016.20 1016.51 1016.84 1017.20 1017.59 1018.00 1018.42 1018.86 1019.30 1019.74 1020.16 1020.55 1020.90 1021.20 1021.43 1021.59 1021.69 1021.73 1021.74 1021.74 1021.76 1021.83 1021.97 1022.18 1022.46 1022.81 1023.19 1023.58 1023.95 1024.29 1024.57 1024.78 1024.93 1025.02
1014.33 1014.60 1014.83 1015.04 1015.27 1015.51 1015.77 1016.06 1016.37 1016.71 1017.06 1017.43 1017.81 1018.20 1018.61 1019.04 1019.47 1019.91 1020.36 1020.79 1021.18 1021.53 1021.82 1022.03 1022.16 1022.21 1022.21 1022.17 1022.13 1022.12 1022.16 1022.28 1022.49 1022.76 1023.10 1023.47 1023.83 1024.17 1024.46 1024.69 1024.85 1024.94 1024.99
1014.49 1014.78 1015.04 1015.30 1015.57 1015.87 1016.21 1016.57 1016.96 1017.37 1017.77 1018.17 1018.57 1018.96 1019.34 1019.74 1020.14 1020.55 1020.97 1021.37 1021.75 1022.09 1022.36 1022.55 1022.66 1022.68 1022.65 1022.58 1022.51 1022.47 1022.49 1022.58 1022.76 1023.01 1023.31 1023.64 1023.97 1024.26 1024.50 1024.67 1024.77 1024.82 1024.83
1014.70 1015.03 1015.32 1015.63 1015.96 1016.32 1016.73 1017.18 1017.65 1018.12 1018.57 1019.00 1019.40 1019.77 1020.11 1020.45 1020.80 1021.15 1021.51 1021.87 1022.22 1022.53 1022.78 1022.96 1023.06 1023.08 1023.03 1022.95 1022.86 1022.80 1022.79 1022.85 1023.00 1023.21 1023.47 1023.76 1024.03 1024.27 1024.46 1024.58 1024.64 1024.65 1024.62
1014.94 1015.30 1015.64 1015.99 1016.38 1016.81 1017.29 1017.81 1018.34 1018.87 1019.36 1019.81 1020.20 1020.54 1020.84 1021.11 1021.38 1021.66 1021.95 1022.26 1022.56 1022.84 1023.08 1023.25 1023.35 1023.38 1023.34 1023.26 1023.17 1023.10 1023.07 1023.11 1023.22 1023.38 1023.60 1023.84 1024.06 1024.26 1024.40 1024.48 1024.51 1024.50 1024.46
1015.20 1015.59 1015.97 1016.36 1016.79 1017.28 1017.82 1018.39 1018.98 1019.54 1020.07 1020.52 1020.90 1021.20 1021.45 1021.66 1021.86 1022.06 1022.29 1022.53 1022.79 1023.04 1023.26 1023.44 1023.55 1023.60 1023.58 1023.52 1023.44 1023.37 1023.33 1023.35 1023.42 1023.55 1023.73 1023.92 1024.10 1024.26 1024.37 1024.43 1024.45 1024.42 1024.38
1015.46 1015.88 1016.28 1016.71 1017.17 1017.69 1018.27 1018.88 1019.50 1020.09 1020.63 1021.08 1021.45 1021.72 1021.92 1022.08 1022.22 1022.36 1022.53 1022.73 1022.94 1023.17 1023.39 1023.57 1023.70 1023.76 1023.77 1023.74 1023.68 1023.61 1023.57 1023.58 1023.63 1023.72 1023.86 1024.01 1024.16 1024.29 1024.39 1024.44 1024.45 1024.43 1024.39
1015.73 1016.16 1016.58 1017.02 1017.51 1018.05 1018.65 1019.27 1019.90 1020.50 1021.04 1021.49 1021.84 1022.09 1022.27 1022.39 1022.49 1022.59 1022.72 1022.88 1023.07 1023.28 1023.49 1023.67 1023.81 1023.90 1023.94 1023.92 1023.88 1023.83 1023.80 1023.79 1023.82 1023.89 1024.00 1024.12 1024.25 1024.36 1024.44 1024.49 1024.51 1024.50 1024.47
1015.99 1016.43 1016.86 1017.32 1017.81 1018.35 1018.95 1019.57 1020.20 1020.79 1021.32 1021.76 1022.10 1022.35 1022.51 1022.62 1022.71 1022.79 1022.90 1023.04 1023.21 1023.40 1023.60 1023.78 1023.92 1024.02 1024.07 1024.08 1024.05 1024.02 1023.98 1023.97 1023.99 1024.05 1024.13 1024.23 1024.34 1024.43 1024.51 1024.56 1024.59 1024.59 1024.57
1016.25 1016.69 1017.13 1017.58 1018.08 1018.62 1019.20 1019.81 1020.42 1020.99 1021.51 1021.95 1022.29 1022.54 1022.71 1022.82 1022.91 1022.99 1023.09 1023.22 1023.38 1023.55 1023.73 1023.90 1024.03 1024.13 1024.18 1024.20 1024.18 1024.15 1024.12 1024.11 1024.13 1024.17 1024.24 1024.32 1024.41 1024.49 1024.56 1024.61 1024.65 1024.66 1024.66
1016.47 1016.92 1017.36 1017.82 1018.32 1018.85 1019.42 1020.01 1020.60 1021.16 1021.66 1022.09 1022.43 1022.69 1022.88 1023.02 1023.12 1023.22 1023.32 1023.44 1023.58 1023.73 1023.88 1024.02 1024.13 1024.21 1024.25 1024.26 1024.25 1024.22 1024.20 1024.20 1024.21 1024.25 1024.31 1024.38 1024.46 1024.53 1024.59 1024.64 1024.68 1024.70 1024.71
1016.61 1017.07 1017.54 1018.01 1018.51 1019.05 1019.61 1020.19 1020.76 1021.30 1021.80 1022.22 1022.57 1022.85 1023.06 1023.22 1023.34 1023.45 1023.55 1023.66 1023.78 1023.90 1024.01 1024.11 1024.19 1024.24 1024.26 1024.26 1024.25 1024.23 1024.22 1024.22 1024.25 1024.29 1024.34 1024.41 1024.48 1024.54 1024.60 1024.64 1024.68 1024.70 1024.72
1016.61 1017.11 1017.60 1018.11 1018.64 1019.19 1019.76 1020.33 1020.90 1021.43 1021.92 1022.35 1022.70 1022.99 1023.22 1023.40 1023.54 1023.66 1023.76 1023.85 1023.94 1024.03 1024.10 1024.16 1024.20 1024.22 1024.22 1024.21 1024.20 1024.20 1024.20 1024.22 1024.26 1024.31 1024.37 1024.44 1024.50 1024.55 1024.60 1024.64 1024.67 1024.69 1024.71
1016.46 1016.99 1017.53 1018.09 1018.66 1019.25 1019.84 1020.42 1020.99 1021.52 1022.01 1022.44 1022.80 1023.11 1023.35 1023.54 1023.70 1023.81 1023.91 1023.99 1024.05 1024.10 1024.13 1024.15 1024.16 1024.16 1024.15 1024.14 1024.14 1024.15 1024.18 1024.22 1024.28 1024.35 1024.42 1024.48 1024.54 1024.59 1024.63 1024.65 1024.67 1024.70 1024.72
1016.12 1016.71 1017.31 1017.93 1018.56 1019.19 1019.82 1020.42 1021.01 1021.55 1022.04 1022.47 1022.84 1023.15 1023.40 1023.61 1023.77 1023.89 1023.98 1024.04 1024.08 1024.10 1024.11 1024.11 1024.10 1024.09 1024.08 1024.09 1024.11 1024.15 1024.20 1024.28 1024.36 1024.44 1024.52 1024.59 1024.64 1024.68 1024.70 1024.71 1024.72 1024.74 1024.76
1015.64 1016.28 1016.95 1017.63 1018.32 1019.01 1019.68 1020.32 1020.92 1021.47 1021.97 1022.41 1022.79 1023.10 1023.36 1023.57 1023.73 1023.86 1023.95 1024.01 1024.04 1024.06 1024.06 1024.06 1024.05 1024.05 1024.07 1024.10 1024.16 1024.23 1024.32 1024.42 1024.52 1024.62 1024.70 1024.76 1024.80 1024.82 1024.82 1024.82 1024.81 1024.81 1024.83
1015.08 1015.77 1016.49 1017.23 1017.98 1018.72 1019.43 1020.10 1020.73 1021.29 1021.80 1022.24 1022.62 1022.94 1023.21 1023.43 1023.60 1023.73 1023.83 1023.90 1023.95 1023.98 1024.00 1024.02 1024.05 1024.09 1024.14 1024.22 1024.31 1024.43 1024.55 1024.67 1024.79 1024.88 1024.95 1025.00 1025.01 1025.01 1024.99 1024.96 1024.93 1024.92 1024.92
1014.54 1015.26 1016.01 1016.80 1017.58 1018.35 1019.09 1019.79 1020.43 1021.01 1021.52 1021.97 1022.36 1022.68 1022.96 1023.19 1023.38 1023.53 1023.65 1023.75 1023.83 1023.90 1023.97 1024.03 1024.11 1024.21 1024.32 1024.44 1024.59 1024.73 1024.88 1025.02 1025.13 1025.22 1025.27 1025.28 1025.26 1025.22 1025.16 1025.11 1025.06 1025.02 1025.00
1014.12 1014.83 1015.60 1016.39 1017.18 1017.97 1018.71 1019.42 1020.06 1020.64 1021.16 1021.61 1022.00 1022.34 1022.63 1022.88 1023.09 1023.27 1023.43 1023.58 1023.71 1023.83 1023.96 1024.09 1024.24 1024.39 1024.56 1024.75 1024.93 1025.11 1025.28 1025.42 1025.52 1025.58 1025.59 1025.57 1025.50 1025.42 1025.32 1025.23 1025.15 1025.09 1025.05
1013.89 1014.57 1015.31 1016.07 1016.85 1017.61 1018.34 1019.02 1019.66 1020.23 1020.74 1021.20 1021.60 1021.95 1022.26 1022.53 1022.78 1023.00 1023.20 1023.39 1023.58 1023.77 1023.96 1024.16 1024.38 1024.60 1024.83 1025.06 1025.29 1025.49 1025.67 1025.80 1025.88 1025.91 1025.88 1025.81 1025.70 1025.56 1025.42 1025.29 1025.18 1025.10 1025.04
1013.87 1014.50 1015.17 1015.88 1016.60 1017.31 1018.00 1018.65 1019.26 1019.81 1020.32 1020.77 1021.18 1021.55 1021.88 1022.18 1022.46 1022.72 1022.97 1023.21 1023.45 1023.69 1023.95 1024.21 1024.48 1024.76 1025.04 1025.31 1025.57 1025.79 1025.96 1026.08 1026.14 1026.14 1026.08 1025.96 1025.80 1025.63 1025.45 1025.29 1025.15 1025.04 1024.96
1014.06 1014.60 1015.20 1015.82 1016.46 1017.09 1017.72 1018.32 1018.89 1019.42 1019.91 1020.36 1020.78 1021.16 1021.51 1021.84 1022.15 1022.45 1022.73 1023.01 1023.29 1023.58 1023.87 1024.17 1024.49 1024.80 1025.12 1025.42 1025.69 1025.92 1026.10 1026.21 1026.26 1026.23 1026.14 1025.99 1025.81 1025.60 1025.40 1025.21 1025.04 1024.91 1024.82
1014.38 1014.83 1015.33 1015.85 1016.39 1016.95 1017.50 1018.04 1018.56 1019.06 1019.54 1019.99 1020.42 1020.81 1021.19 1021.54 1021.87 1022.19 1022.50 1022.79 1023.09 1023.40 1023.71 1024.03 1024.35 1024.69 1025.01 1025.32 1025.61 1025.84 1026.03 1026.14 1026.18 1026.15 1026.05 1025.90 1025.70 1025.48 1025.26 1025.06 1024.88 1024.73 1024.62
Thickness
5778 5774 5771 5768 5766 5763 5760 5757 5755 5753 5752 5750 5749 5747 5746 5745 5744 5742 5740 5738 5736 5734 5734 5732 5731 5731 5729 5729 5728 5726 5724 5721 5714 5717 5719 5719 5717 5715 5713 5711 5709 5707 5703
5778 5774 5769 5767 5764 5760 5758 5756 5754 5751 5749 5748 5746 5744 5743 5742 5741 5739 5736 5735 5733 5731 5730 5729 5727 5727 5725 5723 5721 5720 5719 5718 5713 5709 5709 5709 5707 5707 5705 5703 5702 5699 5696
5777 5772 5767 5763 5760 5757 5755 5753 5751 5748 5746 5745 5743 5741 5739 5738 5737 5735 5733 5732 5730 5727 5726 5724 5722 5721 5718 5717 5715 5714 5713 5712 5710 5705 5702 5701 5700 5699 5696 5694 5692 5689 5687
5775 5769 5764 5761 5758 5755 5752 5749 5747 5745 5743 5741 5739 5737 5736 5734 5733 5731 5729 5727 5725 5723 5721 5719 5717 5714 5712 5711 5709 5707 5706 5704 5702 5698 5695 5693 5691 5690 5687 5683 5680 5679 5676
5773 5766 5761 5758 5755 5752 5748 5745 5742 5740 5738 5736 5734 5733 5731 5729 5727 5725 5724 5722 5719 5717 5715 5713 5710 5707 5705 5703 5701 5698 5698 5696 5693 5690 5687 5684 5681 5678 5676 5675 5671 5668 5666
5769 5763 5759 5755 5750 5747 5743 5740 5737 5734 5732 5730 5728 5726 5724 5721 5719 5718 5717 5715 5712 5710 5707 5705 5703 5699 5697 5694 5691 5689 5688 5685 5683 5680 5677 5673 5670 5669 5668 5666 5662 5659 5655
5765 5760 5755 5750 5745 5741 5739 5734 5731 5728 5726 5723 5721 5718 5715 5712 5711 5710 5709 5707 5704 5702 5699 5696 5694 5691 5688 5685 5682 5680 5677 5675 5673 5670 5666 5662 5659 5658 5657 5655 5653 5650 5646
5760 5755 5750 5745 5740 5736 5732 5728 5724 5722 5719 5716 5713 5711 5708 5704 5703 5702 5701 5698 5695 5692 5689 5686 5683 5681 5679 5676 5673 5669 5666 5662 5661 5658 5655 5651 5650 5649 5648 5646 5644 5640 5636
5754 5749 5745 5740 5735 5730 5726 5721 5718 5715 5711 5708 5705 5702 5699 5696 5694 5693 5693 5690 5686 5682 5678 5675 5673 5670 5667 5666 5663 5659 5656 5651 5649 5647 5644 5641 5639 5638 5636 5635 5632 5629 5623
5748 5743 5739 5735 5729 5723 5719 5715 5711 5707 5703 5700 5696 5693 5691 5687 5685 5684 5684 5682 5678 5673 5669 5665 5662 5659 5657 5655 5652 5649 5645 5642 5639 5637 5634 5631 5628 5626 5624 5622 5619 5616 5612
5742 5737 5732 5727 5722 5717 5712 5708 5704 5700 5696 5692 5688 5684 5681 5678 5675 5674 5673 5672 5669 5665 5660 5655 5652 5649 5647 5644 5641 5638 5634 5632 5629 5626 5623 5620 5617 5614 5611 5609 5606 5603 5599
5734 5729 5724 5719 5716 5710 5704 5700 5697 5693 5688 5684 5680 5676 5672 5668 5665 5663 5661 5660 5658 5654 5650 5645 5641 5639 5637 5634 5631 5627 5625 5622 5619 5616 5612 5607 5604 5601 5598 5595 5592 5589 5586
5724 5719 5714 5710 5705 5700 5696 5692 5688 5685 5681 5677 5673 5669 5664 5659 5654 5652 5651 5649 5646 5643 5639 5635 5632 5629 5627 5624 5621 5618 5615 5612 5608 5604 5600 5595 5592 5589 5586 5583 5580 5577 5575
5714 5709 5705 5699 5694 5689 5685 5682 5677 5674 5672 5669 5665 5660 5655 5650 5646 5643 5641 5638 5635 5632 5629 5626 5623 5620 5616 5613 5611 5608 5604 5601 5597 5593 5589 5585 5582 5578 5575 5572 5569 5566 5562
5705 5700 5695 5690 5682 5675 5669 5664 5662 5656 5656 5655 5653 5649 5645 5639 5633 5632 5632 5629 5626 5623 5620 5618 5614 5611 5608 5604 5600 5596 5593 5589 5585 5582 5578 5574 5570 5567 5563 5560 5557 5554 5550
5696 5691 5687 5681 5674 5667 5660 5652 5646 5644 5642 5640 5638 5636 5631 5627 5624 5623 5620 5618 5616 5613 5611 5608 5604 5601 5597 5593 5588 5584 5580 5576 5572 5569 5566 5562 5559 5555 5552 5548 5545 5541 5538
5688 5683 5679 5673 5667 5661 5655 5649 5641 5633 5630 5628 5626 5624 5621 5617 5615 5613 5610 5607 5605 5603 5600 5597 5593 5589 5585 5581 5577 5573 5568 5564 5560 5557 5553 5550 5547 5544 5540 5536 5532 5528 5525
5680 5674 5670 5665 5660 5655 5649 5644 5639 5633 5627 5619 5615 5612 5610 5608 5605 5603 5600 5597 5596 5593 5590 5586 5582 5578 5574 5570 5566 5562 5557 5553 5550 5546 5542 5539 5536 5532 5529 5525 5521 5517 5515
5671 5666 5662 5657 5653 5648 5643 5638 5633 5627 5621 5615 5609 5604 5600 5598 5596 5594 5591 5589 5588 5584 5580 5576 5572 5568 5564 5560 5556 5551 5547 5543 5539 5536 5532 5529 5526 5523 5519 5516 5513 5508 5505
5661 5656 5652 5650 5646 5641 5636 5631 5625 5620 5615 5610 5605 5600 5596 5592 5590 5587 5584 5582 5579 5575 5571 5567 5563 5559 5554 5550 5546 5542 5539 5534 5531 5527 5524 5521 5518 5515 5512 5509 5505 5503 5500
5653 5647 5644 5642 5637 5633 5628 5623 5618 5613 5608 5603 5598 5594 5590 5588 5585 5582 5578 5574 5571 5567 5563 5558 5554 5550 5546 5541 5538 5534 5530 5526 5522 5519 5516 5513 5510 5508 5505 5502 5499 5496 5493
5645 5640 5636 5633 5629 5624 5620 5616 5611 5607 5602 5597 5591 5587 5582 5581 5579 5575 5571 5567 5563 5559 5554 5550 5546 5542 5537 5533 5530 5526 5522 5518 5514 5511 5508 5505 5503 5501 5498 5495 5492 5489 5486
5637 5633 5629 5624 5620 5614 5611 5609 5605 5601 5596 5592 5588 5583 5577 5574 5571 5567 5563 5559 5555 5551 5546 5542 5538 5534 5530 5526 5521 5517 5513 5509 5505 5502 5499 5497 5496 5493 5491 5488 5485 5483 5480
5629 5626 5621 5616 5612 5608 5605 5601 5598 5594 5590 5586 5582 5577 5573 5568 5564 5560 5556 5551 5547 5543 5538 5534 5530 5525 5521 5517 5513 5508 5504 5500 5497 5494 5491 5489 5488 5486 5484 5482 5480 5478 5474
5621 5618 5614 5609 5605 5601 5598 5595 5591 5588 5584 5580 5576 5571 5567 5563 5558 5553 5549 5544 5540 5536 5531 5527 5522 5518 5514 5509 5504 5500 5496 5493 5490 5487 5484 5482 5481 5479 5478 5476 5474 5472 5470
5613 5610 5606 5602 5598 5594 5591 5587 5584 5580 5577 5573 5569 5565 5560 5556 5552 5547 5542 5538 5534 5530 5525 5521 5516 5512 5507 5503 5498 5494 5490 5487 5484 5481 5478 5475 5474 5474 5472 5470 5469 5467 5465